Theta_e
316 317 316 316 315 316 315 315 316 316 317 316 317 316 316 316 316 314 315 313 313 317 315 316 315 316 316 314 315 315 316 324 329 330 331 329 329 336 341 341 341 341 340 340 338 336 334 332 332 332 334 335 336 338 338 337 338 336 337 335 337 333 333 333 335 334 336 336 335 337 336 334 334 333 334 335 335 336 337 337 337 336 336 336 336
316 316 316 316 316 316 315 315 315 316 316 315 317 316 315 316 316 315 316 313 312 315 314 313 315 316 317 314 314 315 314 316 324 326 328 327 327 333 340 340 340 339 338 336 334 333 331 330 329 330 332 332 333 334 334 333 334 337 337 338 339 337 336 334 335 335 334 337 336 336 336 337 336 334 333 335 335 335 335 335 335 335 335 336 336
315 315 315 315 316 317 317 316 315 316 317 316 317 316 315 315 316 314 314 313 312 313 314 312 313 315 317 314 313 315 315 315 319 327 327 328 327 328 333 339 339 338 337 335 333 330 329 328 327 328 331 330 330 330 330 329 331 332 334 336 338 337 336 338 337 335 336 336 337 337 336 336 334 334 335 335 335 334 334 334 334 334 334 336 336
316 316 315 314 314 315 316 317 317 317 317 316 316 315 315 315 316 315 314 313 312 312 313 311 312 313 316 315 314 315 315 313 313 322 326 326 325 327 327 330 337 337 337 335 333 331 329 327 327 328 327 327 327 328 328 328 326 325 327 329 331 334 335 336 337 337 337 337 337 337 335 336 336 335 335 335 334 334 334 333 334 334 335 335 335
316 317 320 314 314 315 316 318 317 318 317 316 315 314 314 314 314 315 314 311 311 311 313 311 311 312 313 315 314 314 314 314 312 313 319 324 323 324 323 328 328 336 336 335 334 332 329 328 327 327 327 327 327 326 326 325 325 324 325 325 326 327 333 335 335 336 336 337 337 336 336 335 336 335 337 337 336 335 334 333 333 333 334 334 334
317 316 316 316 316 316 316 317 317 317 317 316 313 313 312 312 313 312 315 310 308 310 310 310 310 311 311 313 312 313 313 314 314 312 312 317 318 322 323 324 325 326 328 334 333 333 331 329 327 327 327 326 324 325 324 324 324 324 324 325 325 326 328 330 331 332 333 334 335 335 335 334 335 336 336 336 337 337 335 333 332 332 333 332 333
317 316 316 315 315 315 316 316 317 317 315 315 312 311 312 311 313 311 309 308 306 309 309 309 309 309 310 312 312 311 311 311 312 310 311 312 313 312 315 319 321 323 326 323 335 333 334 331 329 328 326 326 324 324 324 325 325 325 325 325 325 325 325 327 328 329 330 331 331 331 331 332 333 335 335 335 335 335 335 333 333 334 333 332 333
316 315 315 315 314 315 315 316 316 315 314 313 312 310 311 311 311 310 308 307 305 304 307 309 310 308 310 311 311 312 307 308 308 307 308 308 308 306 304 307 316 317 321 316 317 319 326 330 332 330 326 326 325 325 326 326 325 325 325 325 325 324 324 324 324 324 325 327 329 330 330 330 330 331 332 333 333 334 332 334 335 334 334 333 332
318 317 317 316 315 316 315 316 316 314 312 310 309 310 309 311 309 312 309 306 304 302 303 308 309 308 308 310 310 308 305 305 307 305 306 306 305 303 303 304 309 313 306 308 310 311 315 319 321 326 324 320 317 318 319 319 320 320 321 323 324 324 323 323 326 328 330 329 329 329 329 330 331 331 331 332 332 333 333 333 332 332 332 334 333
318 318 317 319 316 316 316 316 314 313 311 309 308 309 308 309 309 309 309 306 303 301 300 304 309 308 307 309 309 305 304 304 305 310 303 304 304 302 301 302 303 303 303 303 304 307 308 311 315 315 315 318 319 321 324 326 325 325 326 325 325 329 331 329 328 328 327 326 326 327 327 328 328 329 329 329 330 331 332 332 332 333 333 333 332
317 318 318 316 317 316 316 315 314 312 310 308 307 308 308 308 309 308 309 306 302 301 300 303 305 307 307 307 308 303 303 305 303 302 302 302 306 305 302 301 301 302 302 302 302 303 306 306 304 302 303 317 319 325 327 327 327 327 328 328 330 330 328 326 325 325 324 324 324 324 324 324 325 326 327 328 328 329 330 331 331 332 331 332 332
316 316 317 317 316 316 316 316 313 311 310 308 307 306 305 305 307 308 306 304 303 302 301 301 301 302 307 306 307 303 303 303 301 301 302 301 301 302 301 302 301 301 301 301 301 302 302 305 310 302 303 308 320 327 326 326 326 326 327 327 327 327 327 326 324 323 322 322 322 322 322 323 323 323 324 325 326 327 328 329 329 330 332 332 332
318 316 314 318 317 316 315 314 313 312 310 308 307 306 306 305 305 306 306 302 301 302 301 301 298 298 300 302 304 305 305 302 301 301 301 301 301 301 301 301 301 300 300 301 301 302 302 302 302 301 301 301 305 323 325 324 323 323 323 323 324 324 324 323 322 320 320 320 321 321 321 322 323 323 322 322 323 325 326 327 328 328 329 331 332
320 317 316 314 315 315 315 313 312 311 311 311 308 310 304 303 303 301 303 302 299 301 301 299 296 295 296 298 300 301 303 299 300 300 300 301 301 301 301 301 301 300 301 301 301 301 302 301 301 301 301 302 303 310 316 316 317 317 318 318 319 320 320 320 319 318 318 318 319 319 320 320 321 321 322 322 322 324 324 325 326 327 327 328 329
316 320 316 315 314 315 315 313 312 313 307 306 304 303 303 302 302 300 299 300 301 302 301 300 296 297 298 297 294 294 298 297 298 299 300 300 300 301 302 301 300 300 300 300 300 300 301 301 301 301 301 302 304 309 311 315 311 314 316 316 315 316 316 317 317 317 316 317 317 318 318 318 319 320 320 321 322 322 323 324 325 326 326 326 327
316 318 316 314 313 313 313 311 311 311 307 304 303 301 302 302 301 302 300 296 297 298 303 301 300 297 292 294 294 292 288 291 294 296 298 299 300 299 301 300 300 299 299 299 299 300 300 301 300 300 300 300 301 301 302 304 307 311 313 315 315 315 315 315 315 315 315 315 316 316 317 317 318 317 318 319 319 320 321 322 323 323 324 325 325
316 318 318 313 312 312 310 308 307 308 308 304 302 301 301 301 301 301 299 297 296 296 299 302 300 302 297 294 291 289 288 291 293 291 296 297 298 299 301 299 299 299 298 298 299 299 300 300 299 299 299 299 299 299 299 300 301 305 305 312 314 314 315 316 315 313 313 314 315 315 315 315 316 316 316 316 317 317 318 319 319 321 322 324 325
316 316 316 314 311 310 309 307 305 306 307 305 303 301 301 301 302 300 300 299 297 297 296 301 302 302 300 298 294 289 290 292 291 288 295 296 297 298 298 298 298 297 297 298 298 298 301 299 298 298 298 298 298 298 297 298 302 299 302 304 312 312 313 315 315 315 315 313 313 314 313 313 314 315 315 315 315 315 315 316 317 318 320 322 324
316 315 313 313 310 310 309 307 305 304 307 303 302 300 301 302 303 301 300 302 298 296 296 296 297 299 300 299 300 298 295 293 289 290 288 291 294 295 296 297 297 296 297 297 297 297 298 299 297 297 297 297 297 297 296 297 300 302 307 309 310 311 312 313 314 313 315 315 315 313 313 315 314 314 314 314 314 314 314 315 315 316 317 320 322
315 314 314 313 310 309 308 306 304 305 305 302 301 300 300 302 303 301 302 301 299 297 296 297 295 295 300 297 297 297 295 295 295 292 290 288 290 294 295 296 296 295 296 296 296 297 296 297 297 296 296 297 296 296 296 296 296 297 301 308 309 309 310 310 311 312 313 313 313 313 313 313 313 313 314 314 313 313 314 314 315 315 315 319 320
314 313 313 312 313 308 307 305 303 303 306 302 301 300 299 298 298 299 299 299 302 301 297 296 296 294 294 294 294 292 293 294 295 294 292 288 287 290 291 294 293 294 295 296 296 297 296 296 298 297 299 296 295 295 295 295 296 296 303 307 308 309 308 309 309 310 310 311 311 312 312 312 312 312 312 314 314 314 313 313 314 314 315 317 318
313 313 312 311 309 308 306 305 304 305 305 301 300 300 299 298 299 299 299 298 298 300 299 296 297 296 295 294 292 292 292 292 292 292 292 291 288 289 290 290 288 291 294 294 295 295 295 296 295 294 294 294 294 294 294 294 296 298 301 306 307 307 308 308 309 308 309 309 310 311 312 312 312 311 311 312 312 313 313 313 313 314 315 315 316
312 312 310 310 310 311 306 304 304 307 303 300 299 299 300 299 298 298 298 298 297 296 298 298 297 296 294 294 292 292 292 292 291 291 291 289 288 288 289 290 290 288 291 294 296 294 294 294 293 293 293 294 294 294 294 295 299 300 304 304 305 306 306 306 307 308 308 308 309 309 311 311 312 311 311 313 312 311 312 313 312 312 311 312 314
311 310 309 308 307 304 306 303 303 299 299 300 299 299 300 300 298 298 297 297 298 298 295 295 295 295 294 293 293 294 294 294 294 293 292 291 290 288 288 289 289 289 292 293 293 293 293 293 293 293 293 293 294 295 295 295 295 302 301 303 303 304 305 306 306 307 308 309 308 309 310 310 310 310 310 311 312 313 312 312 312 310 309 310 311
310 310 309 307 306 303 302 301 302 302 301 300 299 298 298 299 300 298 297 296 295 295 294 295 295 294 292 293 293 293 293 294 294 293 293 293 290 286 288 289 286 287 290 290 290 292 292 292 292 293 293 293 294 293 294 294 294 300 303 302 302 303 304 306 306 307 308 309 309 309 309 308 308 309 311 309 310 313 312 310 310 311 309 310 309
310 309 309 307 305 304 302 301 301 302 303 301 301 300 299 298 298 298 298 296 296 295 294 295 295 295 295 292 292 293 293 294 292 292 292 291 288 287 287 287 287 287 288 288 289 288 289 292 292 293 292 293 293 293 293 294 295 300 303 298 297 301 302 304 306 307 308 308 308 309 309 309 310 309 309 310 311 311 311 311 309 310 310 311 310
309 309 308 305 304 303 302 300 300 299 299 299 301 299 299 298 300 299 299 297 297 297 294 294 295 295 294 293 295 292 292 292 291 292 293 291 289 288 287 284 283 285 286 286 287 286 287 290 291 292 292 294 293 293 294 294 297 301 302 294 293 299 300 302 305 306 307 307 308 308 307 309 310 310 309 309 309 307 308 310 311 311 310 310 310
311 309 307 304 303 302 302 300 299 299 299 298 298 299 299 297 295 296 296 302 296 295 294 293 294 294 293 293 292 291 291 291 292 292 292 291 289 289 288 285 282 280 283 283 283 284 288 287 290 291 291 292 293 293 296 296 293 300 300 294 293 294 299 301 302 303 305 306 306 307 308 308 308 309 308 307 306 308 309 309 309 308 309 310 309
310 308 305 303 301 301 300 299 298 298 298 298 298 297 297 297 296 295 294 294 297 295 294 293 293 294 294 294 292 291 290 291 291 293 292 290 289 288 288 286 286 281 280 280 281 281 284 288 286 289 291 292 292 293 293 292 296 298 294 293 292 292 297 298 298 299 302 304 304 305 306 307 307 306 307 307 307 307 308 309 309 309 308 307 307
311 310 305 304 304 305 299 299 299 299 298 297 297 296 296 296 295 295 295 293 293 294 296 293 293 294 296 294 292 290 290 289 290 291 291 290 288 288 287 287 286 283 281 280 280 283 284 286 287 287 290 291 292 292 293 292 298 296 294 292 291 292 298 297 297 297 298 299 299 301 302 304 305 305 306 307 307 306 306 307 307 307 307 306 304
311 307 305 302 301 300 298 297 297 298 298 298 297 295 295 295 297 294 294 293 292 292 294 295 294 294 292 292 291 290 289 289 289 289 290 290 288 288 287 287 287 284 283 282 279 283 286 284 287 289 289 290 292 292 292 292 295 295 293 292 291 297 297 295 296 296 296 297 297 298 299 301 303 304 305 305 305 305 305 305 305 305 304 302 302
307 306 303 301 300 299 298 297 297 296 296 297 297 296 294 294 294 294 293 293 293 292 292 293 294 293 291 291 291 289 289 288 288 289 288 289 289 288 287 286 285 285 285 282 281 281 285 285 287 288 290 290 291 290 290 291 293 297 293 291 292 296 293 291 296 296 296 296 297 297 297 298 300 301 302 302 303 303 302 302 302 301 300 300 301
307 304 302 300 299 299 298 299 297 296 295 295 296 295 295 295 294 294 293 293 292 292 294 292 293 293 293 291 290 290 289 288 288 289 289 288 288 289 289 286 284 284 284 282 281 282 284 286 287 287 289 290 289 290 289 289 290 291 295 291 291 290 290 290 291 295 296 296 296 297 297 297 297 298 299 300 300 299 299 299 298 298 300 301 301
304 302 300 300 299 298 297 296 296 296 296 295 295 295 295 294 294 297 295 293 291 291 291 291 291 294 291 290 290 290 289 289 289 288 288 288 288 287 286 286 283 283 284 283 282 282 281 284 285 288 288 289 287 290 288 288 289 292 290 290 290 290 290 290 290 291 296 296 296 297 297 297 298 298 297 299 298 297 297 298 297 298 298 299 299
303 301 300 299 299 298 297 296 295 295 295 295 294 294 293 293 292 292 294 292 292 291 290 291 291 291 290 291 290 290 291 288 289 288 289 288 288 287 285 285 283 283 283 284 282 281 281 282 285 285 286 288 287 288 288 289 291 290 289 289 289 290 291 291 290 291 295 296 296 297 297 297 297 297 297 297 297 297 297 297 297 297 297 298 298
303 301 299 299 298 297 297 296 295 295 296 295 294 294 294 293 292 292 291 292 292 291 291 291 290 290 289 289 289 290 291 288 288 288 287 287 286 286 283 283 283 282 283 284 283 282 282 282 284 285 287 286 287 288 289 289 288 288 288 289 289 289 290 291 290 290 293 296 297 297 297 297 297 297 297 297 297 297 297 297 297 297 297 298 298
301 300 300 299 297 297 297 296 294 294 293 293 292 292 292 293 293 292 292 291 292 291 291 292 298 290 292 289 290 290 290 288 289 287 287 286 286 285 282 282 282 283 284 283 283 283 282 282 283 285 287 287 287 287 288 287 287 287 288 288 288 289 289 290 291 292 295 296 297 296 296 296 296 297 297 297 297 297 297 297 297 297 298 298 298
301 300 299 298 298 296 295 294 293 292 291 290 290 290 291 291 291 292 292 292 293 291 291 291 291 292 289 290 290 290 289 288 288 287 286 285 285 283 282 282 281 282 282 282 284 283 283 283 283 284 285 284 284 285 286 287 286 285 286 287 288 289 289 288 290 291 293 292 292 292 295 295 295 296 297 297 297 297 297 297 297 297 298 298 298
300 299 298 298 297 295 293 292 291 290 289 289 289 289 289 289 290 291 292 292 291 292 291 290 290 289 289 290 290 289 289 288 287 285 285 285 286 283 284 282 282 281 282 282 283 283 283 283 283 284 283 283 283 282 285 286 286 286 285 285 286 288 289 289 289 291 292 292 294 296 296 296 297 296 296 297 297 297 297 297 297 298 298 298 299
300 299 297 296 295 294 292 292 291 292 288 288 287 288 288 288 289 290 291 293 292 291 291 290 291 289 289 289 289 289 290 289 287 286 286 286 285 283 282 282 283 282 282 283 283 283 282 283 281 281 281 281 282 283 285 285 284 284 286 285 284 285 287 289 289 289 290 291 290 291 294 295 295 295 296 297 297 297 297 297 298 298 299 298 298
300 298 297 296 294 293 292 291 290 290 289 289 289 287 286 287 287 289 290 291 291 291 291 290 290 289 290 290 289 289 294 297 297 295 293 291 287 283 282 282 284 283 283 283 283 282 282 282 280 280 280 280 281 281 281 282 282 282 285 286 285 286 287 287 289 290 291 290 291 291 291 292 292 292 292 292 293 296 296 298 298 298 298 298 298
298 298 297 296 294 292 291 290 290 291 290 291 295 295 295 289 287 288 290 291 291 290 292 290 290 289 288 288 294 297 296 296 296 293 291 290 290 288 285 283 283 282 283 282 282 282 283 281 280 279 279 279 280 281 281 282 284 285 284 285 284 285 286 287 288 289 291 290 289 289 291 293 292 292 292 292 293 295 294 293 293 295 296 297 297
298 298 296 295 294 293 292 290 289 290 290 291 293 291 291 294 290 288 288 288 290 290 291 289 288 290 289 288 287 293 295 298 291 291 289 289 289 289 290 290 290 286 283 282 282 283 283 282 281 280 279 279 280 282 282 282 284 284 284 285 285 285 285 285 284 288 292 291 289 289 289 292 293 291 292 292 293 293 293 294 296 297 297 297 298
298 298 296 295 294 293 292 290 289 289 289 294 290 292 291 289 293 289 287 287 289 289 290 290 289 290 289 289 289 291 290 288 286 283 285 288 288 289 289 289 289 289 290 286 285 283 283 282 281 281 280 280 280 281 282 283 283 284 285 285 285 285 284 285 285 284 289 292 290 289 289 292 293 292 292 293 294 294 295 296 297 297 297 297 298
298 296 295 295 294 293 291 289 288 290 288 293 290 291 291 290 291 291 286 287 288 289 288 289 289 289 290 292 289 289 291 294 289 282 281 281 287 288 288 288 288 289 288 288 290 288 286 283 281 281 281 281 281 282 285 285 286 284 285 285 285 285 286 285 285 286 288 292 290 289 288 291 292 292 291 293 294 294 295 296 297 297 297 297 297
297 296 295 294 293 292 291 290 289 288 285 293 290 291 291 290 290 289 287 286 287 287 289 289 291 291 290 290 289 288 285 286 286 283 282 281 281 281 281 281 281 285 288 288 289 289 289 286 283 281 283 284 283 284 287 287 286 285 285 284 286 286 286 285 287 287 289 292 290 289 288 290 292 291 290 292 294 294 294 295 296 296 296 296 296
296 296 295 294 293 294 292 290 288 287 286 293 289 290 290 290 290 290 285 288 288 288 289 290 291 291 291 291 288 286 285 285 288 287 283 281 281 281 281 281 281 282 283 283 284 285 287 286 284 283 284 285 285 286 287 287 287 287 287 286 287 287 286 287 287 288 290 293 292 290 286 289 292 290 290 291 292 292 293 295 295 296 296 296 296
296 296 295 295 295 293 292 290 289 287 286 292 288 290 289 290 290 290 287 287 287 289 290 290 290 291 290 289 288 286 285 284 289 289 287 285 282 280 281 281 282 282 283 289 290 290 290 287 286 287 287 288 291 289 290 289 288 287 289 289 287 286 285 284 284 287 288 291 292 291 288 288 291 289 289 290 291 291 292 293 295 295 295 295 295
296 295 295 296 296 294 292 291 290 288 286 291 289 289 289 290 289 286 286 288 289 288 287 287 287 289 289 288 287 285 285 283 290 288 288 289 282 281 281 281 282 282 283 285 289 289 290 290 290 291 290 290 290 290 290 290 290 290 288 285 284 285 284 283 285 286 286 289 291 292 289 287 289 289 287 289 290 290 291 292 294 294 295 295 295
295 295 295 295 295 294 293 291 290 288 285 288 290 290 290 289 290 285 285 287 286 287 285 286 287 289 290 297 292 283 282 282 290 289 288 287 282 281 280 281 281 281 282 284 284 286 290 290 291 290 289 289 290 290 290 290 290 292 286 283 284 285 284 285 284 285 287 289 290 293 288 287 289 289 286 288 289 290 291 292 295 294 295 296 297
296 295 298 295 294 294 293 292 298 291 284 287 290 289 290 289 290 285 285 285 285 284 284 284 286 289 290 295 295 291 286 287 290 289 289 288 282 281 281 280 281 281 282 282 283 284 285 286 284 285 286 287 287 286 288 290 290 291 287 285 285 284 283 285 286 286 284 286 290 293 287 287 287 288 286 284 284 287 290 293 296 290 290 293 292
Wind_Speed
5 4 4 5 4 5 5 5 5 6 6 7 6 6 7 6 6 6 6 6 6 7 6 6 6 5 6 6 7 7 5 4 5 2 1 1 1 2 6 8 9 9 9 9 9 9 9 9 9 9 9 10 9 8 8 8 8 8 7 6 6 5 9 7 8 7 7 8 8 8 7 8 9 8 11 12 12 13 14 14 15 15 16 16 17
5 4 4 4 4 4 5 5 6 6 6 7 6 6 6 7 7 7 6 6 6 7 7 7 7 6 6 6 6 6 5 3 3 2 2 0 1 1 7 8 8 8 8 8 8 7 6 6 7 7 7 8 9 10 10 9 8 6 5 6 4 2 3 2 5 4 7 7 8 9 8 8 9 8 13 14 14 14 14 15 15 16 16 16 17
5 4 5 5 5 5 5 5 6 6 6 6 6 6 6 6 6 6 6 6 6 6 7 7 8 8 7 6 5 5 5 3 4 3 2 0 2 2 2 8 8 7 8 7 6 6 5 4 7 7 7 7 7 8 8 9 10 10 10 9 8 9 10 1 3 4 6 6 6 7 9 8 7 9 11 12 14 14 13 14 15 15 18 17 18
4 4 5 5 6 6 6 6 6 6 6 6 6 6 6 6 7 6 5 5 6 7 6 7 8 7 6 7 6 5 4 4 3 3 2 1 2 3 1 2 7 7 7 8 6 4 4 3 5 5 5 5 5 7 8 9 11 12 12 11 11 12 12 12 12 10 6 7 8 8 7 8 8 8 10 11 12 13 14 15 16 15 16 17 17
4 4 4 5 5 6 6 6 5 6 6 6 7 6 7 7 8 7 8 7 8 7 7 7 7 7 7 7 7 6 5 3 3 1 2 2 2 4 3 1 2 5 6 6 6 6 5 3 2 5 3 4 6 7 9 10 11 11 11 12 12 11 11 10 10 10 10 10 10 9 8 9 9 9 9 10 11 12 12 13 15 16 16 17 18
4 4 5 6 6 6 6 6 6 5 6 7 7 6 6 7 6 6 8 8 7 7 7 8 7 7 8 7 7 6 6 8 5 3 2 0 1 4 4 2 1 1 2 5 6 7 4 3 2 1 5 5 4 6 7 8 10 12 12 11 11 11 9 9 8 8 9 10 11 11 11 10 9 10 10 11 11 11 11 14 14 16 17 18 18
4 5 5 6 6 6 6 6 6 6 6 6 6 6 6 6 6 7 6 8 7 7 7 6 6 8 7 6 7 8 9 9 9 9 9 8 9 8 5 5 7 7 6 7 7 11 13 7 3 3 4 3 6 7 9 8 11 11 10 11 12 11 10 8 8 8 10 11 12 12 13 12 12 9 8 11 12 12 10 10 13 14 16 17 19
4 4 5 5 6 6 6 6 5 6 6 6 6 7 6 6 6 6 7 8 8 8 6 7 6 7 6 6 7 8 8 8 9 9 9 11 9 7 9 11 9 7 8 7 6 10 20 18 10 8 4 7 11 10 10 10 11 11 10 9 8 8 8 9 9 9 10 12 14 14 15 14 13 14 14 13 12 11 12 12 13 14 15 16 17
4 4 5 5 5 6 6 6 5 6 6 6 7 6 6 6 7 6 5 6 8 8 7 6 6 5 5 6 7 7 8 8 9 9 10 11 9 9 11 10 9 11 8 8 7 6 13 22 20 14 12 12 13 12 11 11 10 9 9 8 7 7 8 10 12 14 17 16 15 15 14 15 15 15 17 18 17 14 12 12 13 13 14 16 16
5 4 4 4 4 5 5 6 5 6 6 6 6 6 6 6 6 6 6 7 7 7 7 6 5 4 5 6 7 8 7 8 8 9 10 10 10 11 9 8 9 10 9 9 8 7 8 12 16 15 15 15 15 14 13 12 11 11 12 10 9 14 19 20 19 17 16 16 16 16 16 16 15 15 15 16 17 18 16 13 13 11 12 13 15
5 4 5 5 5 5 5 4 5 6 6 7 7 7 7 7 6 6 5 7 6 6 5 5 5 3 4 5 6 8 7 8 9 10 9 9 9 9 8 9 9 10 10 8 8 7 8 8 8 8 9 16 15 13 12 13 14 14 13 13 13 15 16 17 17 17 17 17 17 17 17 17 17 16 16 16 16 16 17 18 14 13 12 12 11
5 5 5 5 5 5 5 4 5 6 7 8 7 7 8 8 8 7 7 7 9 8 8 6 3 3 4 5 5 7 10 9 10 10 9 9 8 8 9 8 9 8 9 8 8 8 8 8 7 8 7 10 13 13 14 15 15 15 14 14 13 13 13 15 17 16 16 16 17 17 17 18 17 17 17 17 16 16 16 16 16 16 15 14 12
4 5 6 5 5 5 5 5 5 6 6 6 5 6 6 6 5 6 8 8 9 9 11 4 5 5 3 4 4 4 8 10 11 10 10 8 8 8 7 8 9 9 8 7 8 8 8 9 8 8 8 6 8 12 16 16 16 15 15 14 14 13 14 15 15 15 15 15 15 16 16 17 17 18 17 17 17 17 17 16 17 17 18 16 14
4 4 5 5 6 6 5 5 5 6 6 5 6 7 7 8 6 7 6 7 7 9 10 5 7 3 3 6 5 3 5 8 12 10 10 9 8 9 8 9 10 8 7 8 8 9 9 9 9 10 10 8 8 7 7 8 10 18 16 16 16 15 15 14 15 15 15 14 14 14 14 15 16 17 17 17 18 18 18 16 17 17 17 18 18
4 4 5 5 6 6 5 5 5 5 6 7 7 8 8 9 9 7 6 5 6 7 10 9 5 3 1 3 4 6 4 5 6 8 9 9 9 10 10 9 10 9 7 7 8 9 8 9 10 11 12 10 8 8 8 10 16 23 23 21 17 15 15 14 14 14 14 13 14 14 14 14 15 16 17 18 18 18 18 18 17 17 17 18 18
5 5 5 6 6 6 5 6 6 5 6 7 7 8 8 8 8 9 5 8 6 8 8 9 8 5 5 3 1 2 4 5 8 4 6 8 10 10 9 9 9 10 8 9 8 8 8 7 9 9 9 9 9 10 10 10 18 20 22 21 22 20 15 12 12 13 14 13 13 13 13 14 14 14 14 15 16 17 18 18 19 18 17 17 17
5 5 5 6 5 5 6 6 7 6 6 7 7 7 7 7 7 8 9 6 7 5 8 9 10 8 3 3 4 5 1 5 6 4 4 6 10 9 10 11 10 10 8 8 8 8 8 7 7 7 7 8 8 8 9 10 10 11 13 19 21 20 19 20 17 12 12 13 13 12 12 13 14 14 14 14 14 15 16 17 17 18 18 17 16
5 6 6 6 7 6 6 7 6 6 6 6 6 6 7 8 7 7 8 6 5 8 7 7 7 10 9 6 3 3 2 4 5 5 3 3 8 8 10 11 9 10 9 9 10 9 8 7 7 8 7 7 8 8 8 9 10 8 9 12 22 20 20 20 21 20 19 17 15 14 13 13 12 14 15 15 15 14 15 16 17 17 17 16 16
5 5 6 6 6 6 6 6 6 6 6 6 6 6 7 6 6 7 6 6 6 9 8 6 4 8 7 7 6 4 4 5 4 4 6 4 5 9 9 10 9 9 10 10 10 8 8 7 7 7 7 6 8 7 7 8 11 12 17 20 20 20 19 19 19 19 20 20 19 18 17 19 18 15 14 14 15 15 14 15 15 16 17 16 14
6 5 6 6 6 6 6 6 6 6 6 6 6 5 6 6 6 6 6 6 6 7 6 6 7 4 5 6 5 4 5 5 3 2 1 6 9 6 3 8 8 6 8 10 10 8 9 7 7 6 6 7 6 7 8 8 7 7 8 19 19 18 18 18 19 19 19 19 20 19 18 18 18 18 19 18 16 15 15 15 15 15 15 15 14
5 6 5 6 6 6 6 6 6 5 5 6 5 6 7 7 7 8 7 7 6 5 6 7 7 6 5 6 5 5 4 4 4 3 4 3 2 7 11 8 4 5 8 8 9 7 9 6 5 5 5 6 6 7 8 7 7 7 9 19 19 19 18 19 19 20 20 19 18 19 19 18 17 17 18 20 20 19 18 16 16 15 14 13 13
5 5 6 6 6 6 6 6 6 6 5 6 5 6 6 7 7 6 6 6 5 6 6 5 6 5 6 5 6 5 4 4 5 5 2 4 4 8 8 10 12 8 3 5 7 6 9 7 8 7 8 7 7 8 7 7 7 7 11 21 19 19 19 20 20 20 20 20 20 21 21 20 19 17 17 18 19 19 20 19 15 14 13 13 13
5 5 6 6 6 5 5 5 5 5 6 6 5 5 5 5 6 6 6 6 6 6 6 5 5 6 6 6 6 7 5 5 5 6 4 3 5 5 5 5 5 9 8 7 6 4 6 4 5 3 3 3 3 6 7 7 10 13 20 19 19 20 22 21 21 20 20 20 20 20 21 22 21 19 17 15 16 20 20 18 15 11 13 15 14
4 5 5 6 6 5 5 5 5 5 6 5 5 5 5 5 5 5 6 5 5 6 5 6 6 6 5 6 6 5 6 5 3 3 4 3 2 3 6 8 6 5 7 7 5 4 6 5 6 4 5 3 4 6 6 6 7 16 15 17 18 21 20 20 20 19 20 20 20 20 19 19 19 19 18 17 16 17 20 18 16 14 12 13 13
4 6 4 5 5 6 6 5 5 5 5 5 4 5 6 5 5 4 5 5 5 5 6 5 5 6 6 5 6 6 6 4 5 5 5 4 5 6 5 3 5 8 6 5 5 9 4 5 6 6 7 7 9 8 7 7 5 12 19 8 20 20 22 21 20 20 20 20 20 19 18 18 18 19 17 17 15 16 17 17 18 19 15 12 12
5 5 5 5 5 5 6 5 4 5 5 5 4 4 5 5 4 4 4 3 4 5 6 6 6 5 5 6 6 6 6 6 5 6 5 6 5 5 5 5 4 7 6 4 4 5 4 7 6 7 6 8 10 9 8 9 8 17 20 12 12 20 22 22 22 21 21 21 20 20 19 18 17 17 17 18 17 16 16 16 18 19 19 17 16
6 5 5 6 5 6 6 5 5 5 5 5 4 4 4 5 4 3 3 4 4 5 6 7 6 5 5 5 6 6 6 6 6 6 5 5 3 3 4 5 4 3 7 4 5 4 5 6 6 7 7 10 9 9 9 9 12 19 17 8 7 15 20 21 22 22 21 21 21 20 19 18 17 17 17 16 17 18 18 18 16 16 17 18 17
5 6 4 6 6 6 6 4 4 5 4 4 4 4 4 5 5 5 4 2 5 5 4 6 5 4 4 4 6 5 5 6 6 5 5 5 5 4 4 4 6 6 4 6 4 5 4 5 6 4 9 10 10 8 12 13 8 17 12 6 6 7 15 20 21 22 22 21 20 20 21 20 20 20 20 19 19 20 19 18 17 18 18 17 18
6 5 6 5 5 6 5 4 4 5 4 4 4 4 4 4 5 4 4 4 6 4 4 6 4 4 4 5 5 5 5 5 5 5 5 5 5 5 4 4 4 4 7 6 8 2 2 5 7 6 8 9 9 9 9 8 10 14 8 6 5 4 12 19 20 20 19 19 19 21 22 22 22 22 21 20 19 20 20 20 19 18 18 18 17
6 5 6 6 5 6 5 4 4 4 4 3 4 4 4 5 4 4 2 5 5 4 3 4 4 3 4 5 4 5 3 5 5 4 4 3 5 4 4 4 3 5 3 6 8 2 3 6 5 8 10 10 9 9 9 8 12 15 9 6 5 6 17 18 18 18 18 19 20 20 21 21 21 21 21 21 21 21 21 21 21 19 19 19 18
7 6 6 6 6 4 5 5 4 4 3 2 3 4 4 4 4 5 4 5 5 4 3 3 3 4 3 4 3 3 3 4 4 3 3 3 3 3 3 2 4 3 3 3 5 3 4 8 7 7 10 10 10 9 8 8 10 15 10 5 4 14 19 12 17 17 17 19 19 19 20 21 21 21 21 21 21 21 20 20 20 19 18 17 18
6 6 6 6 5 5 4 5 5 4 4 2 2 3 3 4 4 5 3 4 5 4 3 2 3 3 3 4 3 3 2 3 3 2 2 2 2 3 3 3 2 2 3 3 3 10 7 7 8 9 8 10 10 9 9 7 9 15 7 5 7 14 8 7 11 16 17 18 18 19 20 21 22 23 23 22 22 21 20 20 20 19 19 17 16
5 6 6 6 6 6 5 5 5 4 4 3 2 3 4 4 3 3 4 4 4 3 3 3 2 2 3 3 2 2 1 3 2 2 3 3 3 3 3 3 5 3 3 3 5 9 8 2 6 7 9 9 9 8 9 8 8 7 7 6 7 6 7 6 7 12 16 18 19 20 19 19 20 21 22 22 21 20 20 20 20 20 20 19 18
5 7 6 5 5 6 6 5 5 4 4 2 2 3 4 4 4 3 3 3 4 3 2 1 1 1 3 4 2 1 1 2 1 2 2 3 4 4 5 5 5 5 3 2 4 5 11 8 8 7 7 7 9 8 9 10 9 8 8 9 8 7 7 7 7 8 14 18 20 20 19 18 18 18 20 21 21 18 17 17 19 20 21 20 19
5 7 6 6 6 6 5 5 4 5 4 3 2 4 4 4 4 3 3 3 2 2 2 0 1 1 3 3 3 2 1 1 0 1 2 3 3 3 5 4 4 4 4 3 3 5 7 9 7 9 8 8 8 10 9 8 9 9 9 9 9 8 8 7 8 7 12 18 20 19 19 18 18 18 19 21 21 20 20 19 19 19 18 18 17
7 4 6 6 6 6 6 4 4 3 3 2 3 3 2 3 4 3 3 3 2 1 1 0 0 2 3 3 2 2 1 1 1 2 2 2 3 4 5 5 4 5 4 4 3 3 4 9 9 8 9 10 9 8 8 8 9 9 8 9 9 9 9 8 8 8 10 18 19 20 19 19 19 19 19 20 20 20 20 20 20 19 19 18 18
6 6 4 5 5 5 6 5 5 4 3 3 3 3 3 3 3 2 2 2 1 1 1 0 2 3 2 3 3 1 1 1 1 1 1 2 3 4 5 5 4 4 4 4 5 3 5 8 10 7 8 7 8 9 9 8 8 8 10 9 9 9 10 9 7 7 13 19 20 18 17 17 19 20 20 20 20 20 21 21 20 20 19 19 18
6 6 6 4 5 5 5 5 5 4 3 3 3 3 2 3 3 3 3 2 1 1 2 2 4 2 3 2 1 1 1 1 1 0 1 2 2 4 5 5 5 4 4 5 4 5 5 7 8 10 8 8 8 8 9 8 9 9 8 10 9 8 8 8 8 7 6 8 8 9 9 13 16 19 19 19 20 21 21 21 20 20 20 19 18
7 6 4 5 4 6 5 5 5 4 4 3 3 2 2 3 3 3 3 3 2 1 2 3 3 2 2 1 1 2 3 3 3 1 1 2 2 4 4 4 4 4 5 5 5 6 6 6 6 6 8 7 7 9 9 8 9 8 10 9 10 10 8 7 8 8 7 9 12 16 13 12 15 15 17 20 21 21 21 20 20 20 19 20 18
7 6 7 7 5 5 5 5 4 4 4 3 3 2 2 2 3 2 2 2 2 1 1 3 3 2 2 1 1 1 4 4 3 3 1 1 3 4 4 3 4 4 5 5 5 5 6 5 5 8 7 8 8 6 8 9 8 8 6 8 11 12 12 10 8 9 9 8 9 8 7 9 11 14 17 17 19 20 21 19 19 20 20 19 18
6 6 7 8 7 6 4 5 4 4 4 3 2 2 2 2 2 2 1 1 1 1 0 3 3 2 2 1 1 1 3 4 4 2 3 5 2 3 3 3 4 4 5 5 5 6 6 6 7 6 8 9 8 9 10 9 10 11 10 8 9 10 11 12 10 7 8 8 8 7 8 7 9 10 9 10 10 13 14 18 16 19 20 18 17
6 7 7 6 7 7 6 4 4 4 3 2 3 5 3 1 1 1 0 0 0 1 0 1 2 3 3 3 3 4 3 1 4 3 4 6 7 4 2 2 3 3 4 5 6 6 6 7 8 8 9 9 10 9 9 10 10 10 10 10 10 10 9 11 12 5 6 7 8 11 10 7 7 10 9 10 10 11 9 9 9 11 14 17 16
8 7 7 7 6 6 6 6 5 4 3 2 6 3 3 2 1 0 0 1 1 1 0 2 3 4 4 4 3 2 1 4 2 3 4 6 6 7 8 9 7 3 3 4 5 5 6 6 7 8 8 10 11 10 10 10 9 10 10 10 10 10 9 11 12 12 8 9 11 11 13 9 7 10 11 10 10 10 10 11 17 19 20 19 18
6 6 7 7 6 6 5 5 5 4 3 5 5 4 3 1 1 0 1 1 2 1 1 2 3 3 4 4 3 2 1 2 1 2 4 6 7 8 8 8 9 10 8 4 4 6 6 7 8 9 8 9 10 10 10 9 10 10 10 9 9 10 10 10 10 11 11 11 12 12 14 10 7 10 11 11 10 10 11 15 20 20 20 19 17
6 7 7 7 6 5 6 6 5 4 4 5 5 5 3 2 2 1 1 2 2 3 3 2 3 3 4 4 3 0 1 3 2 2 3 4 6 9 8 8 10 10 9 9 8 5 5 6 6 9 9 9 9 10 10 11 10 10 10 10 10 10 9 10 10 11 13 12 11 11 13 12 8 10 11 12 11 11 12 15 21 22 22 19 17
7 6 6 7 6 6 6 6 5 4 4 6 6 5 4 3 3 3 2 3 3 3 3 3 4 4 5 5 3 1 0 0 1 2 3 2 3 4 5 5 5 8 10 10 9 11 9 5 6 8 11 8 10 11 12 10 10 11 10 11 12 11 11 11 12 12 12 9 9 10 13 12 9 10 13 13 11 12 12 15 22 22 21 19 17
9 9 8 7 6 6 5 5 5 5 4 8 7 6 4 4 4 4 3 3 3 3 4 4 5 5 6 4 4 4 2 1 1 2 2 3 3 4 4 5 5 5 6 6 5 5 6 5 6 8 10 10 9 10 10 10 10 10 9 11 12 11 11 11 10 9 9 7 8 7 10 13 10 11 13 13 12 13 12 13 18 20 19 18 16
5 5 5 6 7 6 5 6 5 5 4 8 8 7 6 5 5 2 2 3 3 3 4 4 4 5 4 4 5 4 3 3 4 3 3 2 2 4 5 6 7 7 7 6 7 8 8 7 7 8 9 11 13 12 13 12 10 10 10 9 9 9 11 11 10 10 10 9 8 7 10 14 11 10 13 13 12 12 12 9 11 14 14 14 14
8 7 8 7 6 7 6 5 6 5 4 7 9 8 6 7 4 2 2 2 3 3 3 3 4 3 2 4 5 5 4 3 5 6 5 4 3 4 5 6 6 7 9 8 8 10 11 12 14 15 16 16 16 17 18 19 14 12 9 9 10 9 9 11 11 10 10 10 7 7 10 14 13 10 13 14 12 12 10 8 6 6 9 10 10
8 8 7 6 6 7 7 7 7 6 6 7 10 9 7 7 5 3 3 3 3 2 2 2 2 1 3 9 6 5 4 4 7 7 6 3 3 4 4 6 7 8 9 7 6 7 9 10 12 13 14 14 15 15 16 17 18 14 7 9 10 8 9 9 12 12 11 9 8 9 11 12 13 9 10 13 12 6 5 6 7 2 4 6 7
7 6 6 7 6 5 6 7 10 8 6 7 11 10 8 7 5 3 4 3 2 2 1 2 2 1 2 4 8 6 5 5 8 7 5 5 4 4 4 4 7 7 8 6 7 8 8 7 7 7 8 10 9 8 9 16 17 14 8 8 9 8 9 9 9 10 11 8 9 10 12 13 12 12 8 9 9 9 3 5 7 4 3 3 3
Wind_Direction
56 45 46 46 36 37 38 35 32 20 23 22 22 10 8 5 8 4 5 5 8 14 11 9 5 13 43 42 35 46 58 76 61 22 19 20 356 122 101 96 96 91 80 73 66 58 53 51 48 40 36 35 39 32 43 35 14 23 10 329 13 13 310 335 338 311 302 290 276 277 265 253 260 273 282 268 253 246 238 230 231 229 225 221 220
70 47 53 37 33 27 32 24 24 14 23 22 9 19 9 8 11 15 11 5 8 2 20 15 6 11 10 47 43 37 63 79 92 63 313 15 303 239 125 109 102 102 98 88 90 81 66 62 53 50 44 46 40 40 36 35 32 43 16 12 8 28 221 347 327 332 311 305 302 289 268 260 250 231 247 252 253 247 245 240 236 237 233 229 225
77 65 54 49 42 37 26 22 23 12 18 20 14 19 15 17 11 16 18 12 9 0 17 19 17 8 1 19 36 42 40 57 102 109 244 128 301 271 142 122 119 129 125 127 121 115 112 84 54 45 47 46 47 46 39 33 29 24 16 17 19 19 26 343 290 259 277 299 299 287 293 276 257 246 243 247 250 250 250 247 242 239 239 234 230
69 63 60 47 39 35 24 26 17 13 21 24 23 17 20 13 16 20 25 30 22 18 12 26 19 13 8 13 17 23 34 23 82 152 175 158 271 266 220 148 145 151 146 143 146 169 179 122 91 78 60 44 43 36 36 34 30 23 16 12 16 25 30 26 25 18 350 316 311 307 303 300 289 257 256 256 251 251 250 251 255 250 244 241 238
50 46 47 49 41 35 30 28 21 17 20 20 27 18 23 20 17 9 21 25 29 19 18 27 20 6 11 9 4 12 8 63 11 61 165 181 285 273 230 191 184 160 169 157 167 201 196 172 140 122 130 94 47 32 28 26 21 22 16 14 14 21 35 38 31 21 11 5 354 344 328 310 299 293 273 263 256 250 245 255 252 255 254 251 246
64 49 46 51 47 43 40 32 27 28 25 21 24 19 23 27 14 25 20 24 23 17 22 20 4 12 17 356 12 13 17 31 38 12 13 94 241 320 322 309 228 175 212 192 193 218 208 207 235 168 109 69 48 31 20 15 13 7 7 6 8 8 23 31 29 17 10 6 3 360 355 345 325 307 301 283 269 255 234 229 243 249 254 253 252
51 67 52 56 55 46 41 39 38 37 33 22 29 21 27 28 20 28 25 26 20 22 17 20 14 12 5 6 19 22 32 37 27 20 31 41 46 23 1 356 339 342 343 345 333 352 351 314 297 348 58 74 35 23 10 358 360 356 353 354 353 354 0 18 18 12 10 8 6 2 2 1 354 338 305 297 292 283 265 234 243 242 242 248 251
56 57 57 48 56 54 43 44 46 46 35 25 32 28 18 30 25 33 36 27 21 14 13 7 8 11 1 19 26 31 34 35 30 29 37 48 44 36 33 30 37 44 44 40 30 25 25 19 355 13 358 32 14 12 3 353 346 345 344 341 340 339 340 351 358 5 7 9 12 10 9 6 2 357 352 341 327 316 301 274 248 231 236 242 253
57 57 62 46 46 55 43 48 50 53 42 31 34 27 28 26 29 30 49 41 27 13 7 4 356 1 1 29 34 37 42 36 35 37 41 45 36 36 38 36 37 37 42 41 34 24 20 29 36 29 6 8 9 11 7 2 357 349 342 337 337 336 334 341 4 25 33 30 21 15 12 12 13 11 9 6 0 347 329 313 302 277 260 242 233
54 54 59 54 54 54 49 47 51 51 48 41 34 29 32 29 31 24 34 41 33 20 357 351 348 351 16 32 36 44 41 41 39 41 42 40 38 36 35 34 37 35 35 30 25 19 20 17 17 12 3 8 9 12 20 35 29 21 15 5 10 27 41 43 42 37 38 31 23 18 13 9 5 2 1 359 358 -0 356 339 325 314 287 274 257
56 48 55 45 45 40 49 45 54 56 51 45 36 29 30 27 36 27 31 47 38 20 357 335 346 350 31 30 49 52 47 46 45 46 40 39 40 35 35 37 36 32 31 26 22 22 14 12 7 360 352 3 20 34 51 46 40 35 36 37 43 41 40 40 42 34 29 25 19 15 11 7 5 3 358 354 353 353 355 356 338 322 314 308 292
55 54 54 52 49 45 47 42 52 59 54 47 40 35 29 24 24 28 29 34 31 17 3 357 349 29 38 31 48 57 54 51 48 48 43 37 34 34 35 31 36 31 29 20 17 13 14 6 3 357 355 357 17 57 54 53 50 45 41 40 38 38 36 35 36 33 26 21 16 13 8 3 0 358 357 356 352 349 348 350 351 343 331 327 328
53 53 46 50 53 48 49 39 47 58 59 55 50 49 41 35 29 29 32 35 26 13 7 348 25 13 15 39 28 49 61 51 48 43 41 35 34 34 31 33 31 26 21 19 16 11 12 7 2 358 3 8 358 31 49 51 51 46 40 36 30 31 29 28 27 27 22 17 15 12 7 2 359 357 354 352 351 349 345 345 345 346 347 339 329
54 58 51 56 55 51 46 39 44 59 64 56 53 50 46 42 33 38 26 41 37 15 8 8 29 28 347 333 360 5 65 55 44 34 36 32 32 29 28 30 31 21 16 18 15 12 11 11 13 15 16 19 15 6 16 24 32 31 27 22 19 19 16 15 13 12 14 8 8 7 6 1 357 355 353 353 352 351 348 345 344 342 343 348 343
48 53 59 53 60 58 45 41 43 52 60 49 46 44 43 41 39 46 28 30 43 23 22 34 35 323 331 59 4 356 322 15 38 29 28 31 28 27 22 25 28 19 14 17 15 11 9 16 27 30 30 30 21 15 9 14 22 16 12 11 9 9 7 6 3 4 4 5 359 360 357 358 354 353 351 352 352 351 349 345 343 341 341 341 344
53 61 60 55 61 62 54 48 48 53 66 61 50 51 46 45 44 42 47 46 24 19 26 26 30 15 36 53 342 66 355 355 339 318 18 33 30 25 20 19 21 16 14 18 11 8 8 17 33 39 38 35 29 21 20 17 15 11 4 7 8 2 353 355 1 358 357 1 360 354 355 350 349 347 347 347 346 346 345 344 341 339 337 337 339
61 63 66 64 57 57 60 56 56 51 60 62 56 51 51 51 49 52 46 58 38 20 21 27 34 35 73 45 13 33 19 295 320 292 10 22 25 21 19 15 17 14 10 11 8 9 9 16 31 39 42 39 32 28 20 13 12 1 355 356 359 359 357 348 329 322 336 349 351 347 344 343 340 340 338 336 336 335 334 334 336 336 333 331 331
67 67 65 63 57 55 57 60 58 55 59 66 64 58 54 54 46 56 54 43 69 45 28 15 33 36 39 61 105 125 313 295 32 326 4 28 32 19 17 14 12 9 6 7 6 4 9 13 25 34 33 39 31 29 22 13 6 357 350 347 352 354 353 352 350 338 329 327 326 334 331 329 334 335 334 332 329 325 325 325 325 327 329 328 328
67 72 69 65 63 56 58 63 64 63 63 66 63 61 59 58 50 53 54 55 48 59 42 5 18 36 36 43 54 54 53 42 20 309 347 328 44 6 9 8 5 7 5 2 359 1 9 10 17 31 26 31 27 21 16 8 1 356 352 351 349 347 347 347 346 344 339 342 344 335 333 339 332 325 322 324 323 322 322 321 318 317 320 325 327
81 71 69 68 66 60 60 60 62 62 68 66 70 66 64 56 58 55 51 51 57 63 54 36 57 12 25 41 37 44 54 64 49 74 70 321 333 354 27 1 359 9 1 358 355 357 4 4 9 25 23 22 22 14 6 360 351 341 332 349 349 346 345 345 341 340 340 335 333 334 333 330 328 327 321 311 305 310 317 319 317 311 311 325 325
76 81 70 68 68 68 63 64 63 60 68 69 68 71 72 67 56 50 50 45 47 56 59 45 45 39 31 25 32 31 36 61 52 37 68 352 297 353 337 340 352 10 360 360 353 356 1 355 4 25 17 16 14 8 359 351 344 339 333 348 347 347 349 348 343 339 336 330 325 324 321 318 316 318 320 324 324 317 308 308 311 307 312 325 325
71 75 77 70 67 66 66 66 67 67 68 72 73 66 65 68 68 68 61 60 42 50 65 59 60 52 56 50 42 15 31 21 29 24 30 70 16 340 349 347 342 336 351 351 343 353 350 346 355 7 6 6 5 359 352 344 338 331 340 346 346 349 348 343 339 336 331 328 326 323 321 317 315 318 320 320 319 315 310 304 304 311 320 319 318
85 72 77 73 66 65 71 69 66 66 67 69 70 73 65 67 68 68 65 64 52 50 48 53 64 59 52 56 55 55 54 40 8 11 28 353 349 335 323 325 312 322 339 344 335 346 340 342 344 356 358 351 349 350 341 333 335 335 341 343 345 344 340 338 336 334 330 329 328 322 320 322 323 320 319 324 323 317 308 299 300 313 320 318 314
84 85 72 73 73 63 65 66 68 70 69 73 72 71 69 64 59 68 68 62 55 54 49 48 53 65 59 55 57 53 45 42 0 20 19 333 5 326 335 336 333 330 314 327 310 334 334 346 343 337 345 345 348 346 330 320 309 322 336 339 343 338 334 332 332 331 330 331 328 327 327 326 323 321 321 325 330 330 319 307 294 293 304 305 303
94 92 82 82 84 74 65 66 65 65 72 70 67 69 69 66 66 62 63 69 69 63 57 56 58 68 68 51 55 45 38 19 28 17 12 15 30 9 342 344 317 313 318 339 334 329 312 346 335 340 341 352 348 342 338 326 307 325 335 350 353 346 341 335 329 330 330 331 331 330 330 329 330 334 338 334 335 333 330 323 320 311 299 293 301
121 106 114 99 85 86 83 75 74 71 72 71 66 62 67 72 71 70 65 66 67 61 55 53 57 59 68 62 47 46 32 23 25 33 21 30 20 16 335 334 318 309 308 331 335 346 321 340 342 343 343 356 345 335 336 332 325 336 340 7 351 347 343 339 332 330 329 329 332 330 331 335 336 335 336 334 333 333 333 329 324 322 322 314 302
121 124 112 102 98 88 88 83 79 76 69 64 60 55 54 57 55 62 66 67 66 63 56 65 59 58 57 65 60 45 33 27 31 29 33 38 38 3 13 341 317 301 320 310 321 317 298 313 346 340 357 348 338 332 329 332 332 332 349 0 345 344 344 337 335 333 330 328 331 335 337 334 334 333 330 330 329 327 325 324 322 318 317 315 314
126 121 115 110 105 97 90 93 90 81 73 74 69 65 59 63 52 54 49 45 63 55 61 74 69 66 63 63 63 45 40 36 34 35 37 28 27 15 12 12 354 329 314 303 323 298 305 327 328 4 355 339 329 327 326 328 318 333 352 347 334 332 334 339 339 333 328 332 339 336 333 333 331 330 330 331 329 327 324 324 323 321 320 322 317
127 124 120 107 109 103 99 97 89 90 84 78 80 76 69 62 66 60 52 42 62 55 64 75 78 71 62 72 78 60 39 42 36 31 29 26 17 14 22 19 5 357 341 327 310 319 308 4 335 337 347 331 326 324 322 317 322 335 340 327 320 315 329 338 334 324 324 332 338 334 331 330 328 328 329 329 329 326 322 321 322 324 321 322 323
130 131 124 121 108 105 106 100 97 88 91 91 91 86 76 68 74 69 57 60 60 53 54 78 74 76 69 69 71 66 49 55 43 29 25 20 13 9 10 5 26 27 337 332 309 297 311 340 345 326 331 327 324 322 320 320 323 335 328 316 318 310 333 335 329 325 325 329 330 329 326 323 323 325 326 328 328 325 322 320 320 319 318 318 318
128 128 123 115 115 115 112 105 96 94 78 70 83 85 89 80 75 76 51 63 67 63 35 71 67 77 78 88 86 77 65 67 54 31 19 8 3 352 355 22 7 27 349 313 328 283 40 325 328 323 316 318 320 315 319 317 325 331 324 313 314 327 329 323 325 325 324 322 323 322 320 318 318 320 322 324 325 322 318 316 313 312 314 314 311
129 126 125 128 129 124 117 111 102 96 84 65 80 76 70 84 91 73 57 71 71 70 48 41 70 81 88 93 101 98 77 73 54 31 25 354 349 346 347 2 353 355 347 327 290 287 323 318 314 315 313 314 313 315 316 317 319 322 314 310 310 321 313 298 306 312 314 315 315 315 313 312 312 315 318 319 319 317 314 310 309 310 308 303 300
131 126 131 137 135 130 124 118 114 103 90 80 79 83 80 81 68 78 66 78 79 57 74 47 36 73 96 107 110 110 90 74 46 21 13 353 347 347 335 353 360 352 353 320 299 298 302 275 293 306 311 311 311 312 311 314 315 311 308 300 304 302 302 293 293 298 302 306 308 308 307 307 307 307 307 309 310 310 307 305 304 302 299 297 296
133 131 136 139 134 132 126 125 126 118 117 122 109 97 97 78 56 55 74 72 77 76 69 51 355 43 105 112 123 128 114 113 77 20 4 354 351 352 347 352 345 334 317 309 291 290 302 318 316 308 302 308 303 304 309 314 310 309 309 308 306 300 298 296 294 293 294 299 301 300 302 302 301 299 300 302 302 300 295 294 297 298 297 294 290
134 136 143 141 139 135 130 135 135 134 142 154 148 113 110 103 100 87 87 88 90 87 76 224 292 69 74 119 159 185 189 90 345 323 11 355 351 348 343 344 335 317 308 291 297 300 302 306 307 311 315 313 306 306 309 306 306 306 306 307 307 305 300 297 291 288 288 291 292 295 299 301 299 296 295 295 295 293 292 291 292 292 291 287 284
135 139 140 140 137 136 136 131 115 102 77 60 42 45 79 116 119 101 75 89 120 123 117 209 284 78 111 124 189 213 194 103 340 2 354 344 344 345 347 335 324 313 300 304 292 275 293 305 314 312 312 314 307 301 303 305 307 308 306 303 300 298 297 293 287 285 285 286 290 295 297 297 296 294 292 290 289 288 288 289 289 288 286 284 280
139 140 140 136 135 134 127 122 112 101 100 91 79 63 54 57 66 61 71 95 110 97 108 36 73 96 105 156 209 220 163 101 344 16 325 345 325 346 338 325 323 310 311 309 303 297 296 302 303 302 301 298 301 304 308 312 310 306 306 303 301 299 298 292 285 282 283 289 289 291 294 295 295 295 290 288 288 286 285 286 286 284 283 281 278
144 146 147 146 135 124 121 120 115 109 97 88 83 84 68 59 63 61 44 17 119 116 94 87 91 103 120 170 229 176 186 134 183 230 275 295 312 338 335 327 319 314 310 310 306 305 298 288 293 306 315 314 314 307 310 315 313 309 304 305 303 297 296 296 291 287 282 283 289 289 287 292 291 287 286 285 284 285 285 283 283 283 282 281 279
148 147 134 124 125 124 122 115 114 117 108 92 91 77 69 66 68 65 41 31 5 88 109 97 111 128 132 107 85 156 179 173 170 208 243 291 322 329 322 312 311 318 318 313 314 308 301 298 293 289 304 307 309 311 312 313 308 310 313 313 312 308 299 295 294 289 285 279 273 278 280 285 290 291 288 287 285 285 285 283 282 282 282 282 279
148 146 140 132 127 119 123 114 116 112 106 96 95 88 79 71 73 56 55 32 23 350 90 105 129 148 155 132 321 180 187 183 178 209 202 306 307 326 315 310 313 323 320 316 316 311 305 303 302 315 314 309 310 300 307 318 315 311 311 315 313 315 316 310 296 291 287 279 285 291 286 285 281 279 278 276 277 278 281 283 282 281 280 280 280
144 142 138 135 129 117 109 114 113 110 108 118 133 124 102 73 75 77 44 42 22 0 340 129 159 185 204 196 248 237 199 191 176 85 24 358 332 325 315 309 318 326 321 319 315 311 305 303 311 310 312 316 316 322 324 323 322 316 316 314 302 304 307 306 301 284 274 279 279 281 289 289 290 289 288 291 282 280 276 280 279 278 276 275 272
142 141 138 139 137 139 131 123 119 117 124 167 132 110 102 124 107 72 13 1 305 325 301 195 189 226 218 221 242 281 317 11 89 47 359 350 357 12 344 326 323 324 323 325 322 317 316 322 322 321 323 320 318 320 316 309 307 309 313 315 311 309 306 302 302 282 274 277 293 299 294 288 286 286 285 282 283 284 282 277 263 261 260 259 258
148 149 143 144 147 146 143 141 137 137 150 182 126 117 90 75 124 138 6 293 273 293 261 253 216 223 235 239 245 271 19 74 59 22 348 350 348 1 4 358 353 342 321 320 307 308 313 308 306 317 315 312 311 312 308 307 311 314 313 311 310 311 315 318 315 313 314 316 308 302 299 301 297 291 287 279 277 274 267 266 268 264 263 264 267
155 146 151 155 152 148 141 138 142 155 174 155 140 140 136 130 273 179 226 254 284 271 262 256 266 264 246 236 241 248 124 143 101 357 352 354 353 355 355 345 339 331 331 315 310 320 317 313 317 312 312 308 309 312 308 312 312 312 307 310 309 309 309 310 306 306 304 311 305 303 297 301 294 286 285 283 280 274 266 263 264 267 270 270 266
148 155 160 151 157 154 148 151 158 169 171 163 166 157 176 199 247 274 238 250 251 263 263 261 262 265 264 248 236 307 26 48 22 357 3 346 346 348 341 334 328 327 322 316 326 315 293 304 302 306 306 307 310 306 306 307 310 308 314 315 311 306 303 300 299 300 303 304 302 296 295 302 303 289 290 288 288 285 280 273 271 269 270 267 264
156 155 157 161 159 162 163 161 165 169 185 189 179 178 187 216 233 241 240 240 246 252 261 266 265 260 255 242 206 162 285 336 322 349 347 345 339 335 329 331 318 316 321 330 328 318 311 293 294 298 298 303 299 300 302 306 312 315 317 313 310 309 307 298 294 290 289 296 291 295 294 300 304 302 296 295 293 291 284 276 275 271 269 263 257
164 166 167 167 172 169 167 160 158 177 198 187 183 181 196 222 245 249 223 240 250 265 269 263 258 255 254 234 186 169 194 238 261 313 314 315 331 318 322 322 310 300 312 315 312 306 300 303 296 289 292 296 291 293 300 312 313 309 306 302 304 300 297 296 298 291 293 282 286 298 295 303 311 303 295 298 302 293 286 279 271 266 262 254 245
153 147 161 162 169 171 170 165 165 185 211 188 191 187 197 223 248 260 234 242 256 271 288 283 279 265 235 172 152 162 194 224 238 251 270 278 314 319 328 320 322 325 316 299 300 299 301 301 299 297 296 295 302 315 319 316 313 311 308 309 307 316 321 322 318 318 312 314 312 309 307 306 311 308 300 301 301 296 295 288 271 261 255 241 232
162 172 173 176 172 167 170 177 177 188 200 199 197 194 198 216 237 246 250 250 250 270 278 296 290 266 165 152 152 167 197 226 225 217 238 269 292 318 322 316 313 320 312 313 318 310 305 308 306 304 304 307 314 317 317 315 315 316 318 322 325 326 322 322 321 323 322 319 316 326 315 306 312 315 301 306 307 301 295 291 288 250 239 218 213
176 180 171 166 170 175 175 184 186 181 207 209 202 201 200 212 220 216 222 218 247 246 270 278 295 213 174 164 161 174 194 233 229 226 224 237 279 300 316 315 319 319 308 310 318 309 304 303 305 308 308 309 315 318 317 317 319 321 335 322 313 319 321 324 320 323 317 314 317 334 316 306 312 312 310 308 307 287 293 302 304 246 196 178 184
171 165 169 167 173 185 190 184 194 189 198 206 203 203 201 212 223 213 211 202 232 260 286 306 304 296 257 186 183 189 199 231 230 235 231 229 251 273 274 299 302 302 290 300 306 311 321 333 325 320 318 314 317 316 318 318 319 326 330 318 317 325 318 317 315 317 318 317 318 336 320 314 323 318 328 320 320 306 306 325 353 46 79 111 139